Time,TemperatureF,DewpointF,PressureIn,WindDirection,WindDirectionDegrees,WindSpeedMPH,WindSpeedGustMPH,Humidity,HourlyPrecipIn,Conditions,Clouds,dailyrainin,SoftwareType,DateUTC
2013-07-21 00:01:00,72.0,67.9,29.16,West,270,0.0,0.0,87,0.00,,,0.00,WUHU21623XXSP,2013-07-21 04:01:00,
2013-07-21 00:06:00,72.0,67.9,29.17,West,270,0.0,0.0,87,0.00,,,0.00,WUHU21623XXSP,2013-07-21 04:06:00,
2013-07-21 00:11:00,72.0,67.5,29.17,NW,315,0.0,0.0,86,0.00,,,0.00,WUHU21623XXSP,2013-07-21 04:11:00,
2013-07-21 00:16:00,72.0,67.5,29.17,NW,315,0.0,0.0,86,0.00,,,0.00,WUHU21623XXSP,2013-07-21 04:16:00,
2013-07-21 00:21:00,71.8,67.7,29.17,West,270,0.0,0.0,87,0.00,,,0.00,WUHU21623XXSP,2013-07-21 04:21:00,
2013-07-21 00:27:00,71.8,67.7,29.17,West,270,0.0,0.0,87,0.00,,,0.00,WUHU21623XXSP,2013-07-21 04:27:00,
2013-07-21 00:32:00,71.8,67.7,29.17,NW,315,0.0,0.0,87,0.00,,,0.00,WUHU21623XXSP,2013-07-21 04:32:00,
2013-07-21 00:37:00,71.8,67.7,29.18,West,270,0.0,0.0,87,0.00,,,0.00,WUHU21623XXSP,2013-07-21 04:37:00,
2013-07-21 00:41:00,71.6,67.5,29.18,WSW,247,0.0,0.0,87,0.00,,,0.00,WUHU21623XXSP,2013-07-21 04:41:00,
2013-07-21 00:47:00,71.6,67.5,29.17,West,270,0.0,0.0,87,0.00,,,0.00,WUHU21623XXSP,2013-07-21 04:47:00,
2013-07-21 00:52:00,71.6,67.5,29.18,WNW,292,0.0,0.0,87,0.00,,,0.00,WUHU21623XXSP,2013-07-21 04:52:00,
2013-07-21 00:57:00,71.4,67.3,29.18,West,270,0.0,0.0,87,0.00,,,0.00,WUHU21623XXSP,2013-07-21 04:57:00,
2013-07-21 01:02:00,71.4,67.3,29.18,West,270,0.0,0.0,87,0.00,,,0.00,WUHU21623XXSP,2013-07-21 05:02:00,
2013-07-21 01:07:00,71.4,67.3,29.18,WSW,247,0.0,0.0,87,0.00,,,0.00,WUHU21623XXSP,2013-07-21 05:07:00,
2013-07-21 01:12:00,71.4,67.3,29.18,WSW,247,0.0,0.0,87,0.00,,,0.00,WUHU21623XXSP,2013-07-21 05:12:00,
2013-07-21 01:17:00,71.4,67.3,29.19,West,270,0.0,0.0,87,0.00,,,0.00,WUHU21623XXSP,2013-07-21 05:17:00,
2013-07-21 01:22:00,71.4,67.3,29.19,WNW,292,0.0,0.0,87,0.00,,,0.00,WUHU21623XXSP,2013-07-21 05:22:00,
2013-07-21 01:27:00,71.4,67.3,29.18,West,270,0.0,0.0,87,0.00,,,0.00,WUHU21623XXSP,2013-07-21 05:27:00,
2013-07-21 01:32:00,71.2,67.5,29.18,NW,315,0.0,0.0,88,0.00,,,0.00,WUHU21623XXSP,2013-07-21 05:32:00,
2013-07-21 01:37:00,71.2,67.5,29.19,NW,315,0.0,0.0,88,0.00,,,0.00,WUHU21623XXSP,2013-07-21 05:37:00,
2013-07-21 01:42:00,71.2,67.5,29.18,WSW,247,0.0,0.0,88,0.00,,,0.00,WUHU21623XXSP,2013-07-21 05:42:00,
2013-07-21 01:47:00,71.2,67.5,29.18,West,270,0.0,0.0,88,0.00,,,0.00,WUHU21623XXSP,2013-07-21 05:47:00,
2013-07-21 01:52:00,71.2,67.8,29.18,West,270,0.0,0.0,89,0.00,,,0.00,WUHU21623XXSP,2013-07-21 05:52:00,
2013-07-21 01:57:00,71.2,67.8,29.17,WSW,247,0.0,0.0,89,0.00,,,0.00,WUHU21623XXSP,2013-07-21 05:57:00,
2013-07-21 02:02:00,71.2,67.8,29.18,West,270,0.0,0.0,89,0.00,,,0.00,WUHU21623XXSP,2013-07-21 06:02:00,
2013-07-21 02:07:00,70.9,67.5,29.17,West,270,0.0,0.0,89,0.00,,,0.00,WUHU21623XXSP,2013-07-21 06:07:00,
2013-07-21 02:12:00,70.9,67.5,29.17,WNW,292,0.0,0.0,89,0.00,,,0.00,WUHU21623XXSP,2013-07-21 06:12:00,
2013-07-21 02:17:00,70.9,67.5,29.17,WSW,247,0.0,0.0,89,0.00,,,0.00,WUHU21623XXSP,2013-07-21 06:17:00,
2013-07-21 02:22:00,70.9,67.5,29.17,NW,315,0.0,0.0,89,0.00,,,0.00,WUHU21623XXSP,2013-07-21 06:22:00,
2013-07-21 02:27:00,70.7,67.3,29.17,NW,315,0.0,0.0,89,0.00,,,0.00,WUHU21623XXSP,2013-07-21 06:27:00,
2013-07-21 02:32:00,70.7,67.3,29.17,WNW,292,0.0,0.0,89,0.00,,,0.00,WUHU21623XXSP,2013-07-21 06:32:00,
2013-07-21 02:37:00,70.9,67.5,29.17,WNW,292,0.0,0.0,89,0.00,,,0.00,WUHU21623XXSP,2013-07-21 06:37:00,
2013-07-21 02:42:00,70.9,67.5,29.17,WSW,247,0.0,0.0,89,0.00,,,0.00,WUHU21623XXSP,2013-07-21 06:42:00,
2013-07-21 02:47:00,70.9,67.5,29.17,NW,315,0.0,0.0,89,0.00,,,0.00,WUHU21623XXSP,2013-07-21 06:47:00,
2013-07-21 02:52:00,70.7,67.3,29.16,West,270,0.0,0.0,89,0.00,,,0.00,WUHU21623XXSP,2013-07-21 06:52:00,
2013-07-21 02:57:00,70.7,67.3,29.16,WNW,292,0.0,0.0,89,0.00,,,0.00,WUHU21623XXSP,2013-07-21 06:57:00,
2013-07-21 03:02:00,70.7,67.6,29.16,NW,315,0.0,0.0,90,0.00,,,0.00,WUHU21623XXSP,2013-07-21 07:02:00,
2013-07-21 03:08:00,70.7,67.6,29.16,NW,315,0.0,0.0,90,0.00,,,0.00,WUHU21623XXSP,2013-07-21 07:08:00,
2013-07-21 03:13:00,70.7,67.6,29.16,WNW,292,0.0,0.0,90,0.00,,,0.00,WUHU21623XXSP,2013-07-21 07:13:00,
2013-07-21 03:18:00,70.5,67.5,29.16,WNW,292,0.0,0.0,90,0.00,,,0.00,WUHU21623XXSP,2013-07-21 07:18:00,
2013-07-21 03:23:00,70.5,67.5,29.16,West,270,0.0,0.0,90,0.00,,,0.00,WUHU21623XXSP,2013-07-21 07:23:00,
2013-07-21 03:28:00,70.5,67.5,29.16,WNW,292,0.0,0.0,90,0.00,,,0.00,WUHU21623XXSP,2013-07-21 07:28:00,
2013-07-21 03:33:00,70.3,67.3,29.16,West,270,0.0,0.0,90,0.00,,,0.00,WUHU21623XXSP,2013-07-21 07:33:00,
2013-07-21 03:38:00,70.3,67.3,29.16,WNW,292,0.0,0.0,90,0.00,,,0.00,WUHU21623XXSP,2013-07-21 07:38:00,
2013-07-21 03:43:00,70.3,67.3,29.16,WNW,292,0.0,0.0,90,0.00,,,0.00,WUHU21623XXSP,2013-07-21 07:43:00,
2013-07-21 03:48:00,70.3,67.3,29.16,NW,315,0.0,0.0,90,0.00,,,0.00,WUHU21623XXSP,2013-07-21 07:48:00,
2013-07-21 03:53:00,70.3,67.3,29.16,West,270,0.0,0.0,90,0.00,,,0.00,WUHU21623XXSP,2013-07-21 07:53:00,
2013-07-21 03:58:00,70.3,67.3,29.16,NNW,337,0.0,0.0,90,0.00,,,0.00,WUHU21623XXSP,2013-07-21 07:58:00,
2013-07-21 04:03:00,70.3,67.3,29.16,NW,315,0.0,0.0,90,0.00,,,0.00,WUHU21623XXSP,2013-07-21 08:03:00,
2013-07-21 04:08:00,70.2,67.3,29.16,West,270,0.0,0.0,90,0.00,,,0.00,WUHU21623XXSP,2013-07-21 08:08:00,
2013-07-21 04:13:00,70.2,67.1,29.17,NW,315,0.0,0.0,90,0.00,,,0.00,WUHU21623XXSP,2013-07-21 08:13:00,
2013-07-21 04:18:00,70.2,67.1,29.17,WNW,292,0.0,0.0,90,0.00,,,0.00,WUHU21623XXSP,2013-07-21 08:18:00,
2013-07-21 04:23:00,70.2,67.1,29.17,WNW,292,2.2,2.2,90,0.00,,,0.00,WUHU21623XXSP,2013-07-21 08:23:00,
2013-07-21 04:28:00,70.0,66.9,29.17,WNW,292,0.0,2.2,90,0.00,,,0.00,WUHU21623XXSP,2013-07-21 08:28:00,
2013-07-21 04:33:00,70.0,66.9,29.17,North,0,0.0,0.0,90,0.00,,,0.00,WUHU21623XXSP,2013-07-21 08:33:00,
2013-07-21 04:38:00,70.0,66.9,29.17,North,0,0.0,0.0,90,0.00,,,0.00,WUHU21623XXSP,2013-07-21 08:38:00,
2013-07-21 04:43:00,70.0,66.9,29.17,WSW,247,0.0,0.0,90,0.00,,,0.00,WUHU21623XXSP,2013-07-21 08:43:00,
2013-07-21 04:48:00,69.8,66.7,29.16,West,270,0.0,0.0,90,0.00,,,0.00,WUHU21623XXSP,2013-07-21 08:48:00,
2013-07-21 04:53:00,69.8,67.0,29.17,NW,315,1.1,1.1,91,0.00,,,0.00,WUHU21623XXSP,2013-07-21 08:53:00,
2013-07-21 04:58:00,69.8,67.0,29.17,NNE,22,0.0,1.1,91,0.00,,,0.00,WUHU21623XXSP,2013-07-21 08:58:00,
2013-07-21 05:03:00,69.6,66.9,29.17,NW,315,2.5,2.5,91,0.00,,,0.00,WUHU21623XXSP,2013-07-21 09:03:00,
2013-07-21 05:08:00,69.6,66.9,29.17,NW,315,0.0,2.5,91,0.00,,,0.00,WUHU21623XXSP,2013-07-21 09:08:00,
2013-07-21 05:13:00,69.6,66.9,29.17,NW,315,0.0,0.0,91,0.00,,,0.00,WUHU21623XXSP,2013-07-21 09:13:00,
2013-07-21 05:18:00,69.6,66.9,29.17,NW,315,0.0,0.0,91,0.00,,,0.00,WUHU21623XXSP,2013-07-21 09:18:00,
2013-07-21 05:23:00,69.6,66.9,29.17,WNW,292,0.0,0.0,91,0.00,,,0.00,WUHU21623XXSP,2013-07-21 09:23:00,
2013-07-21 05:28:00,69.6,66.9,29.16,WNW,292,0.0,0.0,91,0.00,,,0.00,WUHU21623XXSP,2013-07-21 09:28:00,
2013-07-21 05:33:00,69.6,66.9,29.16,NW,315,0.0,0.0,91,0.00,,,0.00,WUHU21623XXSP,2013-07-21 09:33:00,
2013-07-21 05:38:00,69.6,66.6,29.16,NW,315,0.0,0.0,90,0.00,,,0.00,WUHU21623XXSP,2013-07-21 09:38:00,
2013-07-21 05:43:00,69.8,66.7,29.16,NW,315,0.0,0.0,90,0.00,,,0.00,WUHU21623XXSP,2013-07-21 09:43:00,
2013-07-21 05:48:00,69.6,66.7,29.17,NW,315,0.0,0.0,90,0.00,,,0.00,WUHU21623XXSP,2013-07-21 09:48:00,
2013-07-21 05:53:00,69.6,66.6,29.17,NW,315,0.0,0.0,90,0.00,,,0.00,WUHU21623XXSP,2013-07-21 09:53:00,
2013-07-21 05:58:00,69.6,66.6,29.16,NW,315,0.0,0.0,90,0.00,,,0.00,WUHU21623XXSP,2013-07-21 09:58:00,
2013-07-21 06:03:00,69.6,66.6,29.17,NW,315,0.0,0.0,90,0.00,,,0.00,WUHU21623XXSP,2013-07-21 10:03:00,
2013-07-21 06:08:00,69.6,66.6,29.17,NW,315,0.0,0.0,90,0.00,,,0.00,WUHU21623XXSP,2013-07-21 10:08:00,
2013-07-21 06:13:00,69.6,66.6,29.18,NW,315,0.0,0.0,90,0.00,,,0.00,WUHU21623XXSP,2013-07-21 10:13:00,
2013-07-21 06:18:00,69.4,66.4,29.18,WNW,292,0.0,0.0,90,0.00,,,0.00,WUHU21623XXSP,2013-07-21 10:18:00,
2013-07-21 06:24:00,69.4,66.4,29.18,NNW,337,0.0,0.0,90,0.00,,,0.00,WUHU21623XXSP,2013-07-21 10:24:00,
2013-07-21 06:29:00,69.3,66.2,29.18,NNW,337,0.0,0.0,90,0.00,,,0.00,WUHU21623XXSP,2013-07-21 10:29:00,
2013-07-21 06:34:00,69.4,66.4,29.18,NNW,337,0.0,0.0,90,0.00,,,0.00,WUHU21623XXSP,2013-07-21 10:34:00,
2013-07-21 06:39:00,69.4,66.4,29.18,NNW,337,0.0,0.0,90,0.00,,,0.00,WUHU21623XXSP,2013-07-21 10:39:00,
2013-07-21 06:44:00,69.4,66.4,29.18,NNW,337,0.0,0.0,90,0.00,,,0.00,WUHU21623XXSP,2013-07-21 10:44:00,
2013-07-21 06:49:00,69.4,66.4,29.18,NNW,337,0.0,0.0,90,0.00,,,0.00,WUHU21623XXSP,2013-07-21 10:49:00,
2013-07-21 06:54:00,69.4,66.4,29.18,NNW,337,0.0,0.0,90,0.00,,,0.00,WUHU21623XXSP,2013-07-21 10:54:00,
2013-07-21 06:59:00,69.4,66.4,29.19,NNW,337,0.0,0.0,90,0.00,,,0.00,WUHU21623XXSP,2013-07-21 10:59:00,
2013-07-21 07:04:00,69.4,66.4,29.19,NNW,337,0.0,0.0,90,0.00,,,0.00,WUHU21623XXSP,2013-07-21 11:04:00,
2013-07-21 07:09:00,69.4,66.4,29.19,NNW,337,0.0,0.0,90,0.00,,,0.00,WUHU21623XXSP,2013-07-21 11:09:00,
2013-07-21 07:14:00,69.4,66.4,29.19,NNW,337,0.0,0.0,90,0.00,,,0.00,WUHU21623XXSP,2013-07-21 11:14:00,
2013-07-21 07:19:00,69.4,66.4,29.19,NNW,337,0.0,0.0,90,0.00,,,0.00,WUHU21623XXSP,2013-07-21 11:19:00,
2013-07-21 07:24:00,69.6,66.6,29.19,NNW,337,0.0,0.0,90,0.00,,,0.00,WUHU21623XXSP,2013-07-21 11:24:00,
2013-07-21 07:29:00,69.6,66.6,29.19,NNW,337,0.0,0.0,90,0.00,,,0.00,WUHU21623XXSP,2013-07-21 11:29:00,
2013-07-21 07:34:00,70.0,66.9,29.19,NNW,337,0.0,0.0,90,0.00,,,0.00,WUHU21623XXSP,2013-07-21 11:34:00,
2013-07-21 07:39:00,70.0,66.9,29.19,NNW,337,0.0,0.0,90,0.00,,,0.00,WUHU21623XXSP,2013-07-21 11:39:00,
2013-07-21 07:44:00,70.2,67.1,29.19,NNW,337,0.0,0.0,90,0.00,,,0.00,WUHU21623XXSP,2013-07-21 11:44:00,
2013-07-21 07:49:00,70.5,67.5,29.20,NNW,337,0.0,0.0,90,0.00,,,0.00,WUHU21623XXSP,2013-07-21 11:49:00,
2013-07-21 07:54:00,70.7,67.6,29.19,SE,135,0.0,0.0,90,0.00,,,0.00,WUHU21623XXSP,2013-07-21 11:54:00,
2013-07-21 07:59:00,70.9,67.8,29.20,SE,135,0.0,0.0,90,0.00,,,0.00,WUHU21623XXSP,2013-07-21 11:59:00,
2013-07-21 08:04:00,71.2,67.8,29.19,NE,45,0.0,0.0,89,0.00,,,0.00,WUHU21623XXSP,2013-07-21 12:04:00,
2013-07-21 08:09:00,71.4,68.0,29.19,ENE,67,0.0,0.0,89,0.00,,,0.00,WUHU21623XXSP,2013-07-21 12:09:00,
2013-07-21 08:14:00,71.4,68.0,29.20,NE,45,0.0,0.0,89,0.00,,,0.00,WUHU21623XXSP,2013-07-21 12:14:00,
2013-07-21 08:19:00,71.8,68.4,29.20,NE,45,0.0,0.0,89,0.00,,,0.00,WUHU21623XXSP,2013-07-21 12:19:00,
2013-07-21 08:24:00,72.1,68.4,29.20,NNW,337,0.0,0.0,88,0.00,,,0.00,WUHU21623XXSP,2013-07-21 12:24:00,
2013-07-21 08:29:00,72.1,68.4,29.21,NE,45,0.0,0.0,88,0.00,,,0.00,WUHU21623XXSP,2013-07-21 12:29:00,
2013-07-21 08:34:00,72.3,68.6,29.20,NNE,22,0.0,0.0,88,0.00,,,0.00,WUHU21623XXSP,2013-07-21 12:34:00,
2013-07-21 08:39:00,72.7,68.9,29.21,ENE,67,0.0,0.0,88,0.00,,,0.00,WUHU21623XXSP,2013-07-21 12:39:00,
2013-07-21 08:44:00,72.7,68.6,29.21,NE,45,0.0,0.0,87,0.00,,,0.00,WUHU21623XXSP,2013-07-21 12:44:00,
2013-07-21 08:49:00,73.0,68.6,29.20,ENE,67,0.0,0.0,86,0.00,,,0.00,WUHU21623XXSP,2013-07-21 12:49:00,
2013-07-21 08:54:00,73.2,68.8,29.20,ENE,67,0.0,0.0,86,0.00,,,0.00,WUHU21623XXSP,2013-07-21 12:54:00,
2013-07-21 08:59:00,73.4,69.0,29.20,ENE,67,0.0,0.0,86,0.00,,,0.00,WUHU21623XXSP,2013-07-21 12:59:00,
2013-07-21 09:04:00,73.9,69.2,29.21,ENE,67,0.0,0.0,85,0.00,,,0.00,WUHU21623XXSP,2013-07-21 13:04:00,
2013-07-21 09:09:00,74.3,69.5,29.21,East,90,0.0,0.0,85,0.00,,,0.00,WUHU21623XXSP,2013-07-21 13:09:00,
2013-07-21 09:14:00,74.5,69.7,29.21,NE,45,0.0,0.0,85,0.00,,,0.00,WUHU21623XXSP,2013-07-21 13:14:00,
2013-07-21 09:19:00,75.0,69.9,29.21,ESE,112,0.0,0.0,84,0.00,,,0.00,WUHU21623XXSP,2013-07-21 13:19:00,
2013-07-21 09:24:00,75.0,69.6,29.21,NE,45,0.0,0.0,83,0.00,,,0.00,WUHU21623XXSP,2013-07-21 13:24:00,
2013-07-21 09:29:00,75.0,69.6,29.21,ESE,112,0.0,0.0,83,0.00,,,0.00,WUHU21623XXSP,2013-07-21 13:29:00,
2013-07-21 09:34:00,75.6,69.7,29.21,ENE,67,0.0,0.0,82,0.00,,,0.00,WUHU21623XXSP,2013-07-21 13:34:00,
2013-07-21 09:39:00,75.9,70.1,29.21,East,90,0.0,0.9,82,0.00,,,0.00,WUHU21623XXSP,2013-07-21 13:39:00,
2013-07-21 09:44:00,76.6,70.4,29.21,NNE,22,0.0,1.6,81,0.00,,,0.00,WUHU21623XXSP,2013-07-21 13:44:00,
2013-07-21 09:49:00,77.2,70.5,29.21,ESE,112,0.0,1.6,80,0.00,,,0.00,WUHU21623XXSP,2013-07-21 13:49:00,
2013-07-21 09:54:00,77.5,70.1,29.22,SSE,157,0.0,2.2,78,0.00,,,0.00,WUHU21623XXSP,2013-07-21 13:54:00,
2013-07-21 09:59:00,77.9,70.5,29.21,ESE,112,1.6,2.2,78,0.00,,,0.00,WUHU21623XXSP,2013-07-21 13:59:00,
2013-07-21 10:04:00,78.4,70.6,29.21,ESE,112,3.4,3.4,77,0.00,,,0.00,WUHU21623XXSP,2013-07-21 14:04:00,
2013-07-21 10:09:00,79.0,70.7,29.21,SE,135,3.1,3.4,76,0.00,,,0.00,WUHU21623XXSP,2013-07-21 14:09:00,
2013-07-21 10:14:00,79.5,70.9,29.21,SE,135,6.3,6.3,75,0.00,,,0.00,WUHU21623XXSP,2013-07-21 14:14:00,
2013-07-21 10:19:00,80.2,71.2,29.21,SE,135,1.6,6.3,74,0.00,,,0.00,WUHU21623XXSP,2013-07-21 14:19:00,
2013-07-21 10:24:00,80.8,71.3,29.21,South,180,0.7,3.1,73,0.00,,,0.00,WUHU21623XXSP,2013-07-21 14:24:00,
2013-07-21 10:30:00,81.1,70.9,29.21,SSE,157,0.0,5.4,71,0.00,,,0.00,WUHU21623XXSP,2013-07-21 14:30:00,
2013-07-21 10:35:00,81.7,71.3,29.22,ESE,112,0.0,5.4,71,0.00,,,0.00,WUHU21623XXSP,2013-07-21 14:35:00,
2013-07-21 10:40:00,82.0,71.5,29.21,East,90,0.0,0.0,71,0.00,,,0.00,WUHU21623XXSP,2013-07-21 14:40:00,
2013-07-21 10:45:00,82.2,71.4,29.22,South,180,0.0,2.2,70,0.00,,,0.00,WUHU21623XXSP,2013-07-21 14:45:00,
2013-07-21 10:50:00,82.6,71.8,29.22,ESE,112,0.0,2.2,70,0.00,,,0.00,WUHU21623XXSP,2013-07-21 14:50:00,
2013-07-21 10:55:00,82.6,71.8,29.22,SE,135,5.6,5.6,70,0.00,,,0.00,WUHU21623XXSP,2013-07-21 14:55:00,
2013-07-21 11:00:00,82.9,72.1,29.22,SE,135,0.0,5.6,70,0.00,,,0.00,WUHU21623XXSP,2013-07-21 15:00:00,
2013-07-21 11:05:00,83.3,72.1,29.22,ESE,112,0.0,2.0,69,0.00,,,0.00,WUHU21623XXSP,2013-07-21 15:05:00,
2013-07-21 11:10:00,83.5,71.8,29.22,East,90,0.0,2.0,68,0.00,,,0.00,WUHU21623XXSP,2013-07-21 15:10:00,
2013-07-21 11:15:00,83.8,72.1,29.22,East,90,0.0,1.8,68,0.00,,,0.00,WUHU21623XXSP,2013-07-21 15:15:00,
2013-07-21 11:20:00,84.0,72.3,29.22,SE,135,0.7,3.4,68,0.00,,,0.00,WUHU21623XXSP,2013-07-21 15:20:00,
2013-07-21 11:25:00,84.2,72.5,29.22,East,90,0.0,3.4,68,0.00,,,0.00,WUHU21623XXSP,2013-07-21 15:25:00,
2013-07-21 11:30:00,84.4,72.7,29.22,SE,135,6.3,6.3,68,0.00,,,0.00,WUHU21623XXSP,2013-07-21 15:30:00,
2013-07-21 11:35:00,84.4,72.2,29.23,SSW,202,0.0,6.3,67,0.00,,,0.00,WUHU21623XXSP,2013-07-21 15:35:00,
2013-07-21 11:40:00,84.6,72.8,29.22,ESE,112,0.0,2.0,68,0.00,,,0.00,WUHU21623XXSP,2013-07-21 15:40:00,
2013-07-21 11:45:00,84.9,72.7,29.22,SSE,157,0.0,6.7,67,0.00,,,0.00,WUHU21623XXSP,2013-07-21 15:45:00,
2013-07-21 11:50:00,85.3,72.6,29.23,East,90,3.6,6.7,66,0.00,,,0.00,WUHU21623XXSP,2013-07-21 15:50:00,
2013-07-21 11:55:00,86.0,73.3,29.21,ESE,112,3.8,3.8,66,0.00,,,0.00,WUHU21623XXSP,2013-07-21 15:55:00,
2013-07-21 12:00:00,86.5,73.8,29.21,ESE,112,3.6,3.8,66,0.00,,,0.00,WUHU21623XXSP,2013-07-21 16:00:00,
2013-07-21 12:05:00,86.5,73.4,29.21,SE,135,2.5,3.6,65,0.00,,,0.00,WUHU21623XXSP,2013-07-21 16:05:00,
2013-07-21 12:10:00,87.1,73.9,29.22,ENE,67,1.3,2.5,65,0.00,,,0.00,WUHU21623XXSP,2013-07-21 16:10:00,
2013-07-21 12:15:00,87.4,73.3,29.21,ESE,112,1.8,2.5,63,0.00,,,0.00,WUHU21623XXSP,2013-07-21 16:15:00,
2013-07-21 12:20:00,88.0,74.3,29.21,ESE,112,4.0,4.0,64,0.00,,,0.00,WUHU21623XXSP,2013-07-21 16:20:00,
2013-07-21 12:25:00,88.5,74.3,29.21,SSE,157,0.0,4.0,63,0.00,,,0.00,WUHU21623XXSP,2013-07-21 16:25:00,
2013-07-21 12:30:00,88.9,74.2,29.21,East,90,7.4,7.4,62,0.00,,,0.00,WUHU21623XXSP,2013-07-21 16:30:00,
2013-07-21 12:35:00,89.4,74.2,29.21,SSW,202,2.0,7.4,61,0.00,,,0.00,WUHU21623XXSP,2013-07-21 16:35:00,
2013-07-21 12:40:00,89.8,74.1,29.21,ENE,67,2.5,3.1,60,0.00,,,0.00,WUHU21623XXSP,2013-07-21 16:40:00,
2013-07-21 12:45:00,90.0,74.3,29.21,South,180,1.3,6.0,60,0.00,,,0.00,WUHU21623XXSP,2013-07-21 16:45:00,
2013-07-21 12:50:00,90.1,74.4,29.20,SE,135,1.1,6.0,60,0.00,,,0.00,WUHU21623XXSP,2013-07-21 16:50:00,
2013-07-21 12:51:00,90.3,74.0,29.21,ESE,112,0.0,6.0,59,0.00,,,0.00,WUHU21623XXSP,2013-07-21 16:51:00,
2013-07-21 12:56:00,90.3,74.0,29.21,SE,135,0.0,1.1,59,0.00,,,0.00,WUHU21623XXSP,2013-07-21 16:56:00,
2013-07-21 13:01:00,90.1,73.9,29.21,SE,135,0.0,0.0,59,0.00,,,0.00,WUHU21623XXSP,2013-07-21 17:01:00,
2013-07-21 13:06:00,89.6,73.4,29.21,SSE,157,0.0,0.0,59,0.00,,,0.00,WUHU21623XXSP,2013-07-21 17:06:00,
2013-07-21 13:11:00,89.6,73.9,29.21,SE,135,0.0,2.5,60,0.00,,,0.00,WUHU21623XXSP,2013-07-21 17:11:00,
2013-07-21 13:16:00,89.8,74.6,29.21,ESE,112,0.0,3.6,61,0.00,,,0.00,WUHU21623XXSP,2013-07-21 17:16:00,
2013-07-21 13:21:00,90.0,73.6,29.21,SE,135,1.8,3.6,59,0.00,,,0.00,WUHU21623XXSP,2013-07-21 17:21:00,
2013-07-21 13:26:00,90.1,73.9,29.21,SE,135,3.6,3.6,59,0.00,,,0.00,WUHU21623XXSP,2013-07-21 17:26:00,
2013-07-21 13:31:00,90.5,74.0,29.21,South,180,0.0,3.6,59,0.00,,,0.00,WUHU21623XXSP,2013-07-21 17:31:00,
2013-07-21 13:36:00,90.3,73.5,29.21,West,270,0.0,2.7,58,0.00,,,0.00,WUHU21623XXSP,2013-07-21 17:36:00,
2013-07-21 13:41:00,89.8,73.0,29.20,ESE,112,2.2,2.7,58,0.00,,,0.00,WUHU21623XXSP,2013-07-21 17:41:00,
2013-07-21 13:46:00,89.4,73.2,29.21,East,90,2.9,2.9,59,0.00,,,0.00,WUHU21623XXSP,2013-07-21 17:46:00,
2013-07-21 13:51:00,89.8,73.6,29.21,SE,135,2.9,2.9,59,0.00,,,0.00,WUHU21623XXSP,2013-07-21 17:51:00,
2013-07-21 13:56:00,90.3,74.0,29.21,SE,135,0.9,3.4,59,0.00,,,0.00,WUHU21623XXSP,2013-07-21 17:56:00,
2013-07-21 14:01:00,90.7,73.3,29.21,NNE,22,0.0,3.4,57,0.00,,,0.00,WUHU21623XXSP,2013-07-21 18:01:00,
2013-07-21 14:06:00,90.3,73.0,29.20,SE,135,4.0,4.0,57,0.00,,,0.00,WUHU21623XXSP,2013-07-21 18:06:00,
2013-07-21 14:11:00,90.3,73.5,29.21,SE,135,0.0,4.3,58,0.00,,,0.00,WUHU21623XXSP,2013-07-21 18:11:00,
2013-07-21 14:16:00,90.3,73.0,29.20,SE,135,3.4,4.3,57,0.00,,,0.00,WUHU21623XXSP,2013-07-21 18:16:00,
2013-07-21 14:21:00,90.3,73.0,29.20,ESE,112,0.0,3.4,57,0.00,,,0.00,WUHU21623XXSP,2013-07-21 18:21:00,
2013-07-21 14:26:00,90.5,72.6,29.20,SSE,157,0.0,0.0,56,0.00,,,0.00,WUHU21623XXSP,2013-07-21 18:26:00,
2013-07-21 14:31:00,90.5,73.1,29.20,SE,135,0.0,1.1,57,0.00,,,0.00,WUHU21623XXSP,2013-07-21 18:31:00,
2013-07-21 14:36:00,90.5,73.1,29.19,SE,135,1.1,2.5,57,0.00,,,0.00,WUHU21623XXSP,2013-07-21 18:36:00,
2013-07-21 14:41:00,90.3,73.0,29.19,East,90,3.4,3.4,57,0.00,,,0.00,WUHU21623XXSP,2013-07-21 18:41:00,
2013-07-21 14:46:00,90.3,73.5,29.19,ESE,112,2.9,3.6,58,0.00,,,0.00,WUHU21623XXSP,2013-07-21 18:46:00,
2013-07-21 14:51:00,90.3,72.4,29.19,SE,135,0.0,3.6,56,0.00,,,0.00,WUHU21623XXSP,2013-07-21 18:51:00,
2013-07-21 14:56:00,90.0,72.6,29.19,SSE,157,0.0,1.6,57,0.00,,,0.00,WUHU21623XXSP,2013-07-21 18:56:00,
2013-07-21 15:01:00,90.0,72.6,29.19,ESE,112,0.0,0.0,57,0.00,,,0.00,WUHU21623XXSP,2013-07-21 19:01:00,
2013-07-21 15:06:00,90.3,73.0,29.18,SE,135,2.7,2.7,57,0.00,,,0.00,WUHU21623XXSP,2013-07-21 19:06:00,
2013-07-21 15:11:00,90.5,73.1,29.18,SE,135,0.0,2.7,57,0.00,,,0.00,WUHU21623XXSP,2013-07-21 19:11:00,
2013-07-21 15:16:00,90.7,72.8,29.18,ESE,112,3.4,3.4,56,0.00,,,0.00,WUHU21623XXSP,2013-07-21 19:16:00,
2013-07-21 15:21:00,90.7,72.2,29.18,SE,135,0.0,3.4,55,0.00,,,0.00,WUHU21623XXSP,2013-07-21 19:21:00,
2013-07-21 15:26:00,91.0,73.1,29.18,South,180,0.0,0.9,56,0.00,,,0.00,WUHU21623XXSP,2013-07-21 19:26:00,
2013-07-21 15:31:00,91.0,73.6,29.18,SSE,157,0.0,0.0,57,0.00,,,0.00,WUHU21623XXSP,2013-07-21 19:31:00,
2013-07-21 15:36:00,90.9,72.9,29.18,ESE,112,0.9,1.8,56,0.00,,,0.00,WUHU21623XXSP,2013-07-21 19:36:00,
2013-07-21 15:41:00,90.7,72.2,29.18,East,90,0.0,1.8,55,0.00,,,0.00,WUHU21623XXSP,2013-07-21 19:41:00,
2013-07-21 15:46:00,90.7,72.8,29.18,SE,135,0.0,0.0,56,0.00,,,0.00,WUHU21623XXSP,2013-07-21 19:46:00,
2013-07-21 15:51:00,90.7,72.2,29.18,ESE,112,2.9,2.9,55,0.00,,,0.00,WUHU21623XXSP,2013-07-21 19:51:00,
2013-07-21 15:56:00,90.7,72.8,29.18,East,90,0.0,2.9,56,0.00,,,0.00,WUHU21623XXSP,2013-07-21 19:56:00,
2013-07-21 16:02:00,90.3,73.0,29.17,SSE,157,0.0,1.1,57,0.00,,,0.00,WUHU21623XXSP,2013-07-21 20:02:00,
2013-07-21 16:07:00,90.1,72.8,29.18,SE,135,0.0,1.1,57,0.00,,,0.00,WUHU21623XXSP,2013-07-21 20:07:00,
2013-07-21 16:12:00,90.0,73.2,29.17,SSE,157,0.0,0.0,58,0.00,,,0.00,WUHU21623XXSP,2013-07-21 20:12:00,
2013-07-21 16:17:00,89.6,73.4,29.17,WSW,247,0.0,0.0,59,0.00,,,0.00,WUHU21623XXSP,2013-07-21 20:17:00,
2013-07-21 16:22:00,88.9,73.2,29.17,SW,225,0.0,0.0,59,0.00,,,0.00,WUHU21623XXSP,2013-07-21 20:22:00,
2013-07-21 16:27:00,88.3,72.8,29.17,SW,225,0.0,2.0,60,0.00,,,0.00,WUHU21623XXSP,2013-07-21 20:27:00,
2013-07-21 16:32:00,88.0,72.5,29.17,SSE,157,0.9,2.0,60,0.00,,,0.00,WUHU21623XXSP,2013-07-21 20:32:00,
2013-07-21 16:37:00,87.8,72.3,29.16,ESE,112,0.0,0.9,60,0.00,,,0.00,WUHU21623XXSP,2013-07-21 20:37:00,
2013-07-21 16:42:00,87.8,73.2,29.16,SSW,202,0.0,0.0,62,0.00,,,0.00,WUHU21623XXSP,2013-07-21 20:42:00,
2013-07-21 16:47:00,87.6,72.6,29.16,SE,135,0.0,1.1,61,0.00,,,0.00,WUHU21623XXSP,2013-07-21 20:47:00,
2013-07-21 16:52:00,87.4,72.4,29.16,SSE,157,0.0,1.1,61,0.00,,,0.00,WUHU21623XXSP,2013-07-21 20:52:00,
2013-07-21 16:57:00,87.4,72.4,29.16,SSW,202,0.0,0.0,60,0.00,,,0.00,WUHU21623XXSP,2013-07-21 20:57:00,
2013-07-21 17:02:00,87.4,72.4,29.16,SSW,202,0.0,0.0,61,0.00,,,0.00,WUHU21623XXSP,2013-07-21 21:02:00,
2013-07-21 17:07:00,87.1,72.1,29.16,SSW,202,0.0,0.0,61,0.00,,,0.00,WUHU21623XXSP,2013-07-21 21:07:00,
2013-07-21 17:12:00,86.9,72.3,29.16,SSW,202,0.0,0.0,62,0.00,,,0.00,WUHU21623XXSP,2013-07-21 21:12:00,
2013-07-21 17:17:00,86.9,72.8,29.15,SE,135,0.0,0.0,63,0.00,,,0.00,WUHU21623XXSP,2013-07-21 21:17:00,
2013-07-21 17:22:00,86.9,73.3,29.15,South,180,0.0,0.0,64,0.00,,,0.00,WUHU21623XXSP,2013-07-21 21:22:00,
2013-07-21 17:27:00,86.7,72.2,29.15,SSE,157,0.0,0.0,62,0.00,,,0.00,WUHU21623XXSP,2013-07-21 21:27:00,
2013-07-21 17:32:00,86.7,72.6,29.15,SW,225,0.0,0.0,63,0.00,,,0.00,WUHU21623XXSP,2013-07-21 21:32:00,
2013-07-21 17:37:00,86.7,72.6,29.15,SE,135,0.0,0.0,63,0.00,,,0.00,WUHU21623XXSP,2013-07-21 21:37:00,
2013-07-21 17:42:00,86.9,72.8,29.15,SE,135,0.0,0.0,63,0.00,,,0.00,WUHU21623XXSP,2013-07-21 21:42:00,
2013-07-21 17:47:00,87.1,72.5,29.15,SE,135,0.0,0.0,62,0.00,,,0.00,WUHU21623XXSP,2013-07-21 21:47:00,
2013-07-21 17:52:00,87.4,72.9,29.15,ESE,112,0.0,0.0,62,0.00,,,0.00,WUHU21623XXSP,2013-07-21 21:52:00,
2013-07-21 17:57:00,88.0,73.4,29.14,ESE,112,0.0,0.0,62,0.00,,,0.00,WUHU21623XXSP,2013-07-21 21:57:00,
2013-07-21 18:02:00,88.2,73.5,29.14,SE,135,0.0,0.0,62,0.00,,,0.00,WUHU21623XXSP,2013-07-21 22:02:00,
2013-07-21 18:07:00,88.0,72.5,29.14,South,180,0.0,0.0,60,0.00,,,0.00,WUHU21623XXSP,2013-07-21 22:07:00,
2013-07-21 18:12:00,87.6,72.5,29.14,SE,135,0.0,0.0,60,0.00,,,0.00,WUHU21623XXSP,2013-07-21 22:12:00,
2013-07-21 18:17:00,87.4,72.4,29.14,SE,135,0.0,0.0,61,0.00,,,0.00,WUHU21623XXSP,2013-07-21 22:17:00,
2013-07-21 18:22:00,87.3,72.4,29.14,ESE,112,0.0,0.0,62,0.00,,,0.00,WUHU21623XXSP,2013-07-21 22:22:00,
2013-07-21 18:27:00,87.1,72.5,29.13,SSE,157,0.0,0.0,62,0.00,,,0.00,WUHU21623XXSP,2013-07-21 22:27:00,
2013-07-21 18:32:00,87.4,72.9,29.13,South,180,0.0,0.0,62,0.00,,,0.00,WUHU21623XXSP,2013-07-21 22:32:00,
2013-07-21 18:37:00,88.0,73.4,29.13,SE,135,0.0,0.0,62,0.00,,,0.00,WUHU21623XXSP,2013-07-21 22:37:00,
2013-07-21 18:42:00,88.7,74.0,29.13,South,180,0.0,0.0,62,0.00,,,0.00,WUHU21623XXSP,2013-07-21 22:42:00,
2013-07-21 18:47:00,89.2,74.1,29.13,SE,135,0.0,0.0,61,0.00,,,0.00,WUHU21623XXSP,2013-07-21 22:47:00,
2013-07-21 18:52:00,89.6,73.9,29.13,South,180,0.0,0.0,60,0.00,,,0.00,WUHU21623XXSP,2013-07-21 22:52:00,
2013-07-21 18:57:00,90.3,74.0,29.12,SSW,202,2.7,2.7,59,0.00,,,0.00,WUHU21623XXSP,2013-07-21 22:57:00,
2013-07-21 19:02:00,90.9,74.0,29.12,SW,225,0.0,5.1,58,0.00,,,0.00,WUHU21623XXSP,2013-07-21 23:02:00,
2013-07-21 19:07:00,91.0,74.2,29.13,SE,135,0.0,5.1,58,0.00,,,0.00,WUHU21623XXSP,2013-07-21 23:07:00,
2013-07-21 19:12:00,90.5,73.7,29.13,South,180,0.0,0.9,58,0.00,,,0.00,WUHU21623XXSP,2013-07-21 23:12:00,
2013-07-21 19:17:00,90.1,73.3,29.13,SE,135,0.0,0.0,58,0.00,,,0.00,WUHU21623XXSP,2013-07-21 23:17:00,
2013-07-21 19:22:00,89.4,72.7,29.13,South,180,0.0,0.0,58,0.00,,,0.00,WUHU21623XXSP,2013-07-21 23:22:00,
2013-07-21 19:27:00,88.3,72.3,29.13,SSE,157,0.0,0.0,59,0.00,,,0.00,WUHU21623XXSP,2013-07-21 23:27:00,
2013-07-21 19:32:00,88.0,72.5,29.13,South,180,0.0,0.0,60,0.00,,,0.00,WUHU21623XXSP,2013-07-21 23:32:00,
2013-07-21 19:37:00,87.4,72.4,29.13,SE,135,0.0,0.0,61,0.00,,,0.00,WUHU21623XXSP,2013-07-21 23:37:00,
2013-07-21 19:42:00,87.1,73.0,29.13,SSE,157,0.0,0.0,63,0.00,,,0.00,WUHU21623XXSP,2013-07-21 23:42:00,
2013-07-21 19:47:00,86.9,72.8,29.13,SSE,157,0.0,0.0,63,0.00,,,0.00,WUHU21623XXSP,2013-07-21 23:47:00,
2013-07-21 19:52:00,86.7,73.1,29.13,SSE,157,0.0,0.0,64,0.00,,,0.00,WUHU21623XXSP,2013-07-21 23:52:00,
2013-07-21 19:57:00,86.4,72.7,29.13,South,180,0.0,0.0,64,0.00,,,0.00,WUHU21623XXSP,2013-07-21 23:57:00,
2013-07-21 20:02:00,86.2,72.6,29.13,SE,135,0.0,0.0,64,0.00,,,0.00,WUHU21623XXSP,2013-07-22 00:02:00,
2013-07-21 20:07:00,85.8,72.7,29.13,SE,135,0.0,0.0,65,0.00,,,0.00,WUHU21623XXSP,2013-07-22 00:07:00,
2013-07-21 20:13:00,85.6,73.0,29.13,SE,135,0.0,0.0,66,0.00,,,0.00,WUHU21623XXSP,2013-07-22 00:13:00,
2013-07-21 20:18:00,85.6,73.0,29.12,SSE,157,0.0,0.0,66,0.00,,,0.00,WUHU21623XXSP,2013-07-22 00:18:00,
2013-07-21 20:23:00,85.3,72.6,29.12,SE,135,0.0,0.0,66,0.00,,,0.00,WUHU21623XXSP,2013-07-22 00:23:00,
2013-07-21 20:28:00,85.1,72.5,29.12,SE,135,0.0,0.0,66,0.00,,,0.00,WUHU21623XXSP,2013-07-22 00:28:00,
2013-07-21 20:33:00,84.9,72.7,29.13,South,180,0.0,0.0,67,0.00,,,0.00,WUHU21623XXSP,2013-07-22 00:33:00,
2013-07-21 20:38:00,84.4,72.2,29.14,South,180,0.0,0.0,67,0.00,,,0.00,WUHU21623XXSP,2013-07-22 00:38:00,
2013-07-21 20:43:00,84.0,71.9,29.13,SSE,157,0.0,0.0,67,0.00,,,0.00,WUHU21623XXSP,2013-07-22 00:43:00,
2013-07-21 20:48:00,84.0,71.9,29.13,SSE,157,0.0,0.0,67,0.00,,,0.00,WUHU21623XXSP,2013-07-22 00:48:00,
2013-07-21 20:53:00,83.8,72.1,29.13,SE,135,0.0,0.0,68,0.00,,,0.00,WUHU21623XXSP,2013-07-22 00:53:00,
2013-07-21 20:58:00,83.5,72.2,29.13,SSE,157,0.0,0.0,69,0.00,,,0.00,WUHU21623XXSP,2013-07-22 00:58:00,
2013-07-21 21:03:00,83.3,72.1,29.13,SE,135,0.0,0.0,69,0.00,,,0.00,WUHU21623XXSP,2013-07-22 01:03:00,
2013-07-21 21:08:00,82.9,72.1,29.13,SE,135,0.0,0.0,70,0.00,,,0.00,WUHU21623XXSP,2013-07-22 01:08:00,
2013-07-21 21:13:00,82.6,72.2,29.14,SSE,157,0.0,0.0,71,0.00,,,0.00,WUHU21623XXSP,2013-07-22 01:13:00,
2013-07-21 21:18:00,82.2,71.8,29.14,South,180,0.0,0.0,71,0.00,,,0.00,WUHU21623XXSP,2013-07-22 01:18:00,
2013-07-21 21:23:00,81.7,71.8,29.14,South,180,0.0,0.0,72,0.00,,,0.00,WUHU21623XXSP,2013-07-22 01:23:00,
2013-07-21 21:28:00,81.5,71.6,29.15,South,180,0.0,0.0,72,0.00,,,0.00,WUHU21623XXSP,2013-07-22 01:28:00,
2013-07-21 21:33:00,81.5,71.6,29.15,SSE,157,0.0,0.0,72,0.00,,,0.00,WUHU21623XXSP,2013-07-22 01:33:00,
2013-07-21 21:38:00,81.1,71.7,29.15,SW,225,0.0,0.0,73,0.00,,,0.00,WUHU21623XXSP,2013-07-22 01:38:00,
2013-07-21 21:43:00,81.1,71.7,29.15,SW,225,0.0,0.0,73,0.00,,,0.00,WUHU21623XXSP,2013-07-22 01:43:00,
2013-07-21 21:48:00,81.0,71.5,29.15,SW,225,0.0,0.0,73,0.00,,,0.00,WUHU21623XXSP,2013-07-22 01:48:00,
2013-07-21 21:53:00,81.0,71.5,29.16,SW,225,0.0,0.0,73,0.00,,,0.00,WUHU21623XXSP,2013-07-22 01:53:00,
2013-07-21 21:58:00,80.8,71.3,29.16,SW,225,0.0,0.0,73,0.00,,,0.00,WUHU21623XXSP,2013-07-22 01:58:00,
2013-07-21 22:03:00,80.8,71.3,29.15,South,180,0.0,0.0,73,0.00,,,0.00,WUHU21623XXSP,2013-07-22 02:03:00,
2013-07-21 22:08:00,80.8,71.7,29.16,SSE,157,0.0,0.0,74,0.00,,,0.00,WUHU21623XXSP,2013-07-22 02:08:00,
2013-07-21 22:13:00,80.4,71.4,29.16,SE,135,0.0,0.0,74,0.00,,,0.00,WUHU21623XXSP,2013-07-22 02:13:00,
2013-07-21 22:18:00,80.4,71.4,29.16,SE,135,0.0,0.0,74,0.00,,,0.00,WUHU21623XXSP,2013-07-22 02:18:00,
2013-07-21 22:23:00,80.4,71.8,29.16,SSE,157,0.0,0.0,75,0.00,,,0.00,WUHU21623XXSP,2013-07-22 02:23:00,
2013-07-21 22:28:00,80.2,71.6,29.16,SE,135,0.0,0.0,75,0.00,,,0.00,WUHU21623XXSP,2013-07-22 02:28:00,
2013-07-21 22:33:00,80.1,71.4,29.16,South,180,0.0,0.0,75,0.00,,,0.00,WUHU21623XXSP,2013-07-22 02:33:00,
2013-07-21 22:38:00,79.9,71.6,29.16,SE,135,0.0,0.0,76,0.00,,,0.00,WUHU21623XXSP,2013-07-22 02:38:00,
2013-07-21 22:43:00,79.7,71.6,29.16,SE,135,0.0,0.0,76,0.00,,,0.00,WUHU21623XXSP,2013-07-22 02:43:00,
2013-07-21 22:48:00,79.5,71.3,29.16,SE,135,0.0,0.0,76,0.00,,,0.00,WUHU21623XXSP,2013-07-22 02:48:00,
2013-07-21 22:53:00,79.3,71.1,29.16,SSE,157,0.0,0.0,76,0.00,,,0.00,WUHU21623XXSP,2013-07-22 02:53:00,
2013-07-21 22:58:00,79.3,71.1,29.16,SE,135,0.0,0.0,76,0.00,,,0.00,WUHU21623XXSP,2013-07-22 02:58:00,
2013-07-21 23:03:00,79.2,70.9,29.16,SE,135,0.0,0.0,76,0.00,,,0.00,WUHU21623XXSP,2013-07-22 03:03:00,
2013-07-21 23:08:00,79.2,71.3,29.16,SE,135,0.0,0.0,77,0.00,,,0.00,WUHU21623XXSP,2013-07-22 03:08:00,
2013-07-21 23:13:00,79.2,71.3,29.16,SSE,157,0.0,0.0,77,0.00,,,0.00,WUHU21623XXSP,2013-07-22 03:13:00,
2013-07-21 23:18:00,79.0,71.1,29.16,SW,225,0.0,0.0,77,0.00,,,0.00,WUHU21623XXSP,2013-07-22 03:18:00,
2013-07-21 23:23:00,79.0,71.1,29.16,SE,135,0.0,0.0,77,0.00,,,0.00,WUHU21623XXSP,2013-07-22 03:23:00,
2013-07-21 23:28:00,79.0,71.1,29.16,SE,135,0.0,0.0,77,0.00,,,0.00,WUHU21623XXSP,2013-07-22 03:28:00,
2013-07-21 23:33:00,78.6,71.0,29.16,SE,135,0.0,0.0,77,0.00,,,0.00,WUHU21623XXSP,2013-07-22 03:33:00,
2013-07-21 23:38:00,78.6,70.8,29.15,SE,135,0.0,0.0,77,0.00,,,0.00,WUHU21623XXSP,2013-07-22 03:38:00,
2013-07-21 23:43:00,78.6,71.2,29.15,SSE,157,0.0,0.0,78,0.00,,,0.00,WUHU21623XXSP,2013-07-22 03:43:00,
2013-07-21 23:48:00,78.4,71.0,29.15,ESE,112,0.0,0.0,78,0.00,,,0.00,WUHU21623XXSP,2013-07-22 03:48:00,
2013-07-21 23:53:00,78.1,70.3,29.15,SE,135,0.0,0.0,77,0.00,,,0.00,WUHU21623XXSP,2013-07-22 03:53:00,
2013-07-21 23:58:00,78.1,70.3,29.15,ESE,112,0.0,0.0,78,0.00,,,0.00,WUHU21623XXSP,2013-07-22 03:58:00,